FW6644 Weather Reports


Display with metric or nautical units.
time (UTC)temp
F
wind
direction
speed
MPH
gust
MPH
rain 1hr
in
rain 24hr
in
rain mn
in
humidity
%
barometer
mb
20260507033037 78 235 0.0 1.0 0.00 0.00 0.00 22 1011.1
20260507031541 78 235 0.0 1.0 0.00 0.00 0.00 21 1010.9
20260507030046 79 252 0.0 4.0 0.00 0.00 0.00 20 1010.7
20260507024541 79 225 0.0 3.0 0.00 0.00 0.00 20 1010.6
20260507023034 80 239 0.0 2.0 0.00 0.00 0.00 19 1010.4
20260507021535 80 215 0.0 2.0 0.00 0.00 0.00 19 1010.2
20260507020033 82 294 0.0 2.0 0.00 0.00 0.00 18 1010.2
20260507014544 83 340 0.0 2.0 0.00 0.00 0.00 18 1010.1
20260507013031 83 287 0.0 5.0 0.00 0.00 0.00 18 1010.1
20260507011533 84 330 0.0 5.0 0.00 0.00 0.00 17 1010.1
20260507010033 84 62 1.0 6.0 0.00 0.00 0.00 17 1010.2
20260507004529 84 215 1.0 5.0 0.00 0.00 0.00 18 1010.1
20260507003028 85 217 1.0 10.0 0.00 0.00 0.00 18 1010.1
20260507001529 85 195 2.0 6.0 0.00 0.00 0.00 17 1010.1
20260507000035 85 198 0.0 4.0 0.00 0.00 0.00 18 1010.0
20260506234525 84 311 1.0 5.0 0.00 0.00 0.00 18 1010.1
20260506233023 84 35 1.0 4.0 0.00 0.00 0.00 18 1010.3
20260506231522 83 241 1.0 7.0 0.00 0.00 0.00 18 1010.4
20260506230019 85 61 1.0 5.0 0.00 0.00 0.00 17 1010.6
20260506224518 85 302 1.0 5.0 0.00 0.00 0.00 18 1010.8
20260506223015 85 195 0.0 2.0 0.00 0.00 0.00 18 1010.9
20260506221511 85 224 1.0 8.0 0.00 0.00 0.00 18 1011.2
20260506220020 82 238 0.0 4.0 0.00 0.00 0.00 19 1011.3
20260506214512 85 330 1.0 8.0 0.00 0.00 0.00 17 1011.5
20260506213008 83 333 1.0 5.0 0.00 0.00 0.00 18 1011.8
20260506211509 82 295 1.0 6.0 0.00 0.00 0.00 19 1012.0
20260506210009 82 38 1.0 7.0 0.00 0.00 0.00 19 1012.3
20260506204505 82 259 2.0 7.0 0.00 0.00 0.00 19 1012.5
20260506203004 81 293 0.0 5.0 0.00 0.00 0.00 20 1012.6
20260506201502 79 354 3.0 7.0 0.00 0.00 0.00 21 1012.8
20260506200003 82 352 2.0 6.0 0.00 0.00 0.00 20 1012.9
20260506194634 80 322 2.0 8.0 0.00 0.00 0.00 21 1013.0
20260506193105 79 318 2.0 5.0 0.00 0.00 0.00 21 1013.3
20260506191556 80 352 2.0 8.0 0.00 0.00 0.00 22 1013.4
20260506190100 78 27 1.0 6.0 0.00 0.00 0.00 23 1013.6
20260506184555 79 41 4.0 8.0 0.00 0.00 0.00 21 1013.8
20260506183054 79 4 1.0 6.0 0.00 0.00 0.00 23 1014.1
20260506181553 79 39 1.0 5.0 0.00 0.00 0.00 24 1014.2
20260506174554 77 255 2.0 9.0 0.00 0.00 0.00 26 1014.5
20260506173056 79 278 0.0 4.0 0.00 0.00 0.00 25 1014.4
20260506171553 78 41 0.0 2.0 0.00 0.00 0.00 26 1014.4
20260506170100 77 92 0.0 2.0 0.00 0.00 0.00 26 1014.3
20260506164546 76 260 0.0 3.0 0.00 0.00 0.00 28 1014.4
20260506163101 74 1 1.0 4.0 0.00 0.00 0.00 29 1014.4
20260506161542 75 158 0.0 4.0 0.00 0.00 0.00 29 1014.3
20260506160040 74 238 0.0 4.0 0.00 0.00 0.00 30 1014.4
20260506154604 73 45 0.0 2.0 0.00 0.00 0.00 31 1014.4
20260506153049 72 281 0.0 2.0 0.00 0.00 0.00 31 1014.4
20260506151537 74 145 0.0 2.0 0.00 0.00 0.00 30 1014.4
20260506150034 73 232 0.0 1.0 0.00 0.00 0.00 31 1014.4
20260506144530 70 253 0.0 1.0 0.00 0.00 0.00 34 1014.3
20260506143033 68 176 0.0 1.0 0.00 0.00 0.00 36 1014.2
20260506141523 67 125 0.0 2.0 0.00 0.00 0.00 38 1014.1
20260506140020 65 142 0.0 3.0 0.00 0.00 0.00 39 1013.8
20260506134518 64 119 0.0 3.0 0.00 0.00 0.00 42 1013.6
20260506133016 63 158 0.0 2.0 0.00 0.00 0.00 43 1013.5
20260506131517 61 120 0.0 1.0 0.00 0.00 0.00 45 1013.4
20260506130014 59 153 0.0 1.0 0.00 0.00 0.00 49 1013.2
20260506124511 58 181 0.0 3.0 0.00 0.00 0.00 49 1012.9
20260506123008 59 198 0.0 0.0 0.00 0.00 0.00 47 1012.8
20260506121506 59 210 0.0 2.0 0.00 0.00 0.00 45 1012.7
20260506120006 59 215 0.0 1.0 0.00 0.00 0.00 44 1012.6
20260506114504 60 228 0.0 1.0 0.00 0.00 0.00 43 1012.6
20260506113003 60 143 1.0 5.0 0.00 0.00 0.00 44 1012.5
20260506111600 60 170 0.0 0.0 0.00 0.00 0.00 44 1012.5
20260506104555 60 166 0.0 1.0 0.00 0.00 0.00 43 1012.3
20260506103054 61 225 0.0 1.0 0.00 0.00 0.00 43 1012.2
20260506101601 61 176 0.0 2.0 0.00 0.00 0.00 44 1012.0
20260506100050 61 160 0.0 2.0 0.00 0.00 0.00 45 1012.0
20260506094607 60 135 0.0 1.0 0.00 0.00 0.00 44 1011.9
20260506093148 61 115 0.0 1.0 0.00 0.00 0.00 43 1011.7
20260506091544 62 115 0.0 1.0 0.00 0.00 0.00 44 1011.6
20260506090043 61 126 0.0 0.0 0.00 0.00 0.00 43 1011.5
20260506084541 62 129 0.0 2.0 0.00 0.00 0.00 41 1011.5
20260506083041 62 139 0.0 1.0 0.00 0.00 0.00 41 1011.5
20260506081538 62 146 0.0 0.0 0.00 0.00 0.00 41 1011.5
20260506073035 65 250 0.0 3.0 0.00 0.00 0.00 35 1011.4
20260506071531 65 297 0.0 1.0 0.00 0.00 0.00 35 1011.2
20260506061530 66 346 0.0 1.0 0.00 0.00 0.00 33 1010.9
20260506044513 69 238 0.0 3.0 0.00 0.00 0.00 29 1010.2
20260506043011 70 264 0.0 4.0 0.00 0.00 0.00 28 1010.1
20260506041510 71 212 2.0 7.0 0.00 0.00 0.00 27 1010.0
20260506040032 71 313 1.0 6.0 0.00 0.00 0.00 27 1009.9
20260506034510 71 294 2.0 7.0 0.00 0.00 0.00 26 1009.7